| time (UTC) | temp F | wind direction | speed MPH | gust MPH | rain 1hr in | rain 24hr in | rain mn in | humidity % | barometer mb |
| 20260502190059 | 52 | 127 | 11.0 | 14.0 | 0.00 | 0.00 | 0.00 | 80 | 1010.4 |
| 20260502184600 | 51 | 120 | 6.0 | 9.0 | 0.00 | 0.00 | 0.00 | 83 | 1010.5 |
| 20260502183107 | 50 | 146 | 6.0 | 11.0 | 0.00 | 0.00 | 0.00 | 84 | 1010.7 |
| 20260502181543 | 49 | 116 | 7.0 | 12.0 | 0.00 | 0.00 | 0.00 | 83 | 1010.9 |
| 20260502163052 | 50 | 120 | 4.0 | 9.0 | 0.00 | 0.00 | 0.00 | 84 | 1011.7 |
| 20260502161527 | 50 | 129 | 7.0 | 10.0 | 0.00 | 0.00 | 0.00 | 83 | 1012.0 |
| 20260502151600 | 49 | 333 | 1.0 | 3.0 | 0.00 | 0.00 | 0.00 | 84 | 1011.7 |
| 20260502123003 | 45 | 321 | 5.0 | 8.0 | 0.00 | 0.00 | 0.00 | 83 | 1012.3 |
| 20260502121541 | 45 | 302 | 2.0 | 5.0 | 0.00 | 0.00 | 0.00 | 84 | 1012.5 |
| 20260502114525 | 46 | 255 | 3.0 | 5.0 | 0.00 | 0.00 | 0.00 | 80 | 1011.9 |
| 20260502113027 | 46 | 331 | 1.0 | 2.0 | 0.00 | 0.00 | 0.00 | 80 | 1011.4 |
| 20260502111524 | 46 | 324 | 1.0 | 6.0 | 0.00 | 0.00 | 0.00 | 82 | 1011.4 |
| 20260502110023 | 45 | 318 | 1.0 | 3.0 | 0.00 | 0.00 | 0.00 | 82 | 1011.2 |
| 20260502104525 | 45 | 249 | 0.0 | 4.0 | 0.00 | 0.00 | 0.00 | 82 | 1011.2 |
| 20260502103031 | 46 | 313 | 3.0 | 6.0 | 0.00 | 0.00 | 0.00 | 82 | 1011.4 |
| 20260502101541 | 46 | 272 | 2.0 | 4.0 | 0.00 | 0.00 | 0.00 | 82 | 1011.6 |
| 20260502090104 | 47 | 5 | 3.0 | 6.0 | 0.00 | 0.00 | 0.00 | 79 | 1010.8 |
| 20260502071532 | 46 | 328 | 0.0 | 2.0 | 0.00 | 0.00 | 0.00 | 77 | 1011.3 |
| 20260502070051 | 45 | 328 | 1.0 | 2.0 | 0.00 | 0.00 | 0.00 | 79 | 1011.2 |
| 20260502064514 | 45 | 321 | 2.0 | 4.0 | 0.00 | 0.00 | 0.00 | 80 | 1011.3 |
| 20260502063013 | 45 | 342 | 1.0 | 2.0 | 0.00 | 0.00 | 0.00 | 80 | 1011.2 |
| 20260502061554 | 45 | 32 | 0.0 | 2.0 | 0.00 | 0.00 | 0.00 | 78 | 1011.2 |
| 20260502060049 | 45 | 32 | 0.0 | 2.0 | 0.00 | 0.00 | 0.00 | 77 | 1011.3 |
| 20260502054530 | 46 | 32 | 0.0 | 2.0 | 0.00 | 0.00 | 0.00 | 78 | 1011.6 |
| 20260502053030 | 46 | 32 | 0.0 | 2.0 | 0.00 | 0.00 | 0.00 | 78 | 1011.4 |
| 20260502051512 | 47 | 32 | 0.0 | 1.0 | 0.00 | 0.00 | 0.00 | 76 | 1011.8 |
| 20260502050011 | 46 | 342 | 0.0 | 0.0 | 0.00 | 0.00 | 0.00 | 77 | 1011.8 |
| 20260502044553 | 46 | 345 | 0.0 | 1.0 | 0.00 | 0.00 | 0.00 | 75 | 1011.9 |
| 20260502043057 | 46 | 101 | 0.0 | 0.0 | 0.00 | 0.00 | 0.00 | 75 | 1011.7 |
| 20260502041535 | 46 | 174 | 0.0 | 0.0 | 0.00 | 0.00 | 0.00 | 68 | 1011.5 |
| 20260502040036 | 46 | 174 | 0.0 | 1.0 | 0.00 | 0.00 | 0.00 | 70 | 1011.5 |
| 20260502034522 | 46 | 174 | 0.0 | 0.0 | 0.00 | 0.00 | 0.00 | 67 | 1011.4 |
| 20260502033011 | 46 | 174 | 0.0 | 1.0 | 0.00 | 0.00 | 0.00 | 66 | 1011.4 |
| 20260502031551 | 46 | 197 | 0.0 | 0.0 | 0.00 | 0.00 | 0.00 | 62 | 1011.4 |
| 20260502030052 | 47 | 180 | 0.0 | 0.0 | 0.00 | 0.00 | 0.00 | 61 | 1011.3 |
| 20260502024539 | 47 | 180 | 0.0 | 0.0 | 0.00 | 0.00 | 0.00 | 60 | 1011.3 |
| 20260502023042 | 48 | 180 | 0.0 | 2.0 | 0.00 | 0.00 | 0.00 | 59 | 1011.3 |
| 20260502021533 | 48 | 180 | 0.0 | 2.0 | 0.00 | 0.00 | 0.00 | 64 | 1011.2 |
| 20260502020037 | 49 | 135 | 0.0 | 4.0 | 0.00 | 0.00 | 0.00 | 62 | 1011.2 |
| 20260502014527 | 51 | 333 | 0.0 | 1.0 | 0.00 | 0.00 | 0.00 | 53 | 1011.2 |
| 20260502013033 | 51 | 333 | 0.0 | 2.0 | 0.00 | 0.00 | 0.00 | 48 | 1011.2 |
| 20260502011524 | 52 | 334 | 0.0 | 2.0 | 0.00 | 0.00 | 0.00 | 57 | 1011.0 |
| 20260502010017 | 53 | 333 | 0.0 | 0.0 | 0.00 | 0.00 | 0.00 | 46 | 1010.8 |
| 20260502004624 | 54 | 334 | 0.0 | 2.0 | 0.00 | 0.00 | 0.00 | 42 | 1010.7 |
| 20260502003057 | 55 | 333 | 0.0 | 2.0 | 0.00 | 0.00 | 0.00 | 42 | 1010.5 |
| 20260502001542 | 57 | 334 | 0.0 | 2.0 | 0.00 | 0.00 | 0.00 | 47 | 1010.2 |
| 20260502000031 | 58 | 334 | 0.0 | 3.0 | 0.00 | 0.00 | 0.00 | 35 | 1009.9 |
| 20260501234510 | 59 | 339 | 2.0 | 6.0 | 0.00 | 0.00 | 0.00 | 34 | 1009.7 |
| 20260501233016 | 59 | 311 | 3.0 | 7.0 | 0.00 | 0.00 | 0.00 | 33 | 1009.5 |
| 20260501231604 | 60 | 320 | 3.0 | 9.0 | 0.00 | 0.00 | 0.00 | 33 | 1009.3 |
| 20260501230045 | 60 | 343 | 7.0 | 12.0 | 0.00 | 0.00 | 0.00 | 32 | 1009.1 |
| 20260501224545 | 61 | 345 | 4.0 | 10.0 | 0.00 | 0.00 | 0.00 | 33 | 1009.0 |
| 20260501223026 | 61 | 327 | 4.0 | 11.0 | 0.00 | 0.00 | 0.00 | 33 | 1008.9 |
| 20260501221524 | 61 | 329 | 7.0 | 23.0 | 0.00 | 0.00 | 0.00 | 32 | 1008.8 |
| 20260501220005 | 60 | 323 | 8.0 | 14.0 | 0.00 | 0.00 | 0.00 | 33 | 1008.7 |
| 20260501214504 | 61 | 351 | 5.0 | 12.0 | 0.00 | 0.00 | 0.00 | 31 | 1008.5 |
| 20260501213048 | 61 | 348 | 9.0 | 17.0 | 0.00 | 0.00 | 0.00 | 32 | 1008.4 |
| 20260501211546 | 61 | 350 | 10.0 | 15.0 | 0.00 | 0.00 | 0.00 | 32 | 1008.2 |
| 20260501210026 | 60 | 346 | 10.0 | 15.0 | 0.00 | 0.00 | 0.00 | 37 | 1008.1 |
| 20260501204527 | 61 | 337 | 7.0 | 15.0 | 0.00 | 0.00 | 0.00 | 33 | 1007.9 |
| 20260501203015 | 61 | 286 | 7.0 | 18.0 | 0.00 | 0.00 | 0.00 | 32 | 1007.9 |
| 20260501201509 | 61 | 313 | 9.0 | 15.0 | 0.00 | 0.01 | 0.00 | 34 | 1008.0 |
| 20260501200007 | 60 | 340 | 10.0 | 24.0 | 0.00 | 0.01 | 0.00 | 35 | 1007.9 |
| 20260501194506 | 60 | 315 | 8.0 | 18.0 | 0.00 | 0.01 | 0.00 | 36 | 1008.0 |
| 20260501193004 | 61 | 296 | 8.0 | 19.0 | 0.00 | 0.01 | 0.00 | 36 | 1008.1 |
| 20260501191605 | 60 | 335 | 8.0 | 17.0 | 0.00 | 0.02 | 0.01 | 36 | 1008.3 |
| 20260501190117 | 59 | 259 | 7.0 | 17.0 | 0.00 | 0.02 | 0.01 | 37 | 1008.2 |